SIA371 KLAX-WSSS

Flight info

Callsign SIA371
Flight time N/A
Altitude 34000
Route MUELR4 RZS DCT MQO DCT AUDIA DCT 36N130W 39N140W 42N150W 43N160W 38N170W/N0494F360 32N180E 28N170E/N0489F380 25N160E 21N150E 17N140E/N0487F400 DCT ENDAX P515 TOKON M767 TOMAN KARTO2A
Aircraft A359/H-SDE1E2E3GHIJ1J2J3J5M1P2RWXYZ/LB1D1

Departure

Time N/A
Airport Los Angeles International Airport (KLAX)

Arrival

Time 2026-05-07 15:11
Airport Singapore Changi Airport (WSSS)
Time Latitude Longitude Altitude Speed Heading
2026-05-07 14:19 3.73124 108.89236 39859 ft 494 kts 232°
2026-05-07 14:20 3.68957 108.83766 39861 ft 493 kts 232°
2026-05-07 14:20 3.64804 108.78291 39859 ft 493 kts 232°
2026-05-07 14:21 3.60646 108.72801 39860 ft 493 kts 232°
2026-05-07 14:21 3.56494 108.67321 39860 ft 493 kts 232°
2026-05-07 14:22 3.52367 108.61881 39860 ft 493 kts 232°
2026-05-07 14:22 3.48214 108.56410 39861 ft 493 kts 232°
2026-05-07 14:23 3.44056 108.50934 39860 ft 493 kts 232°
2026-05-07 14:23 3.39903 108.45464 39859 ft 493 kts 232°
2026-05-07 14:24 3.35750 108.40000 39859 ft 493 kts 232°
2026-05-07 14:24 3.31595 108.34526 39861 ft 494 kts 232°
2026-05-07 14:25 3.27471 108.29092 39858 ft 493 kts 232°
2026-05-07 14:25 3.23290 108.23587 39860 ft 494 kts 232°
2026-05-07 14:26 3.19157 108.18148 39859 ft 494 kts 232°
2026-05-07 14:26 3.14997 108.12674 39859 ft 493 kts 232°
2026-05-07 14:27 3.10840 108.07206 39860 ft 493 kts 232°
2026-05-07 14:27 3.06675 108.01728 39860 ft 493 kts 232°
2026-05-07 14:28 3.02540 107.96288 39861 ft 493 kts 232°
2026-05-07 14:28 2.98382 107.90818 39860 ft 493 kts 232°
2026-05-07 14:29 2.94233 107.85361 39861 ft 493 kts 232°
2026-05-07 14:29 2.90078 107.79898 39860 ft 493 kts 232°
2026-05-07 14:30 2.86623 107.75353 39858 ft 493 kts 232°
2026-05-07 14:30 2.81784 107.68997 39860 ft 493 kts 232°
2026-05-07 14:31 2.78324 107.64452 39858 ft 493 kts 232°
2026-05-07 14:31 2.74172 107.58992 39860 ft 493 kts 232°
2026-05-07 14:32 2.70015 107.53530 39859 ft 493 kts 232°
2026-05-07 14:32 2.65877 107.48093 39867 ft 493 kts 232°
2026-05-07 14:33 2.61721 107.42634 39868 ft 493 kts 232°
2026-05-07 14:33 2.57561 107.37169 39870 ft 493 kts 232°
2026-05-07 14:34 2.53403 107.31708 39869 ft 493 kts 232°
2026-05-07 14:34 2.49274 107.26286 39870 ft 493 kts 232°
2026-05-07 14:35 2.45112 107.20822 39869 ft 493 kts 232°
2026-05-07 14:35 2.40954 107.15365 39869 ft 493 kts 232°
2026-05-07 14:36 2.36801 107.09914 39869 ft 493 kts 232°
2026-05-07 14:36 2.32632 107.04458 39880 ft 492 kts 232°
2026-05-07 14:37 2.28469 106.99027 39869 ft 492 kts 232°
2026-05-07 14:37 2.22242 106.90902 39878 ft 492 kts 232°
2026-05-07 14:38 2.18073 106.85463 39878 ft 492 kts 232°
2026-05-07 14:38 2.13939 106.80066 39878 ft 491 kts 232°
2026-05-07 14:39 2.09780 106.74641 39879 ft 491 kts 232°
2026-05-07 14:39 2.05627 106.69222 39878 ft 491 kts 232°
2026-05-07 14:40 2.01467 106.63788 39878 ft 491 kts 232°
2026-05-07 14:40 1.97309 106.58366 39879 ft 491 kts 232°
2026-05-07 14:41 1.93179 106.52980 39878 ft 491 kts 232°
2026-05-07 14:41 1.89030 106.47567 39878 ft 491 kts 232°
2026-05-07 14:42 1.84875 106.42148 39878 ft 491 kts 232°
2026-05-07 14:42 1.80717 106.36726 39878 ft 490 kts 232°
2026-05-07 14:43 1.76584 106.31339 39879 ft 490 kts 232°
2026-05-07 14:43 1.72445 106.25940 39878 ft 490 kts 232°
2026-05-07 14:44 1.68287 106.20517 39877 ft 490 kts 232°
2026-05-07 14:44 1.64161 106.15138 39878 ft 490 kts 232°
2026-05-07 14:45 1.60004 106.09716 39878 ft 490 kts 232°
2026-05-07 14:45 1.55853 106.04300 39879 ft 490 kts 232°
2026-05-07 14:46 1.53787 106.01608 39589 ft 485 kts 232°
2026-05-07 14:46 1.51759 105.98963 38781 ft 488 kts 232°
2026-05-07 14:46 1.49680 105.96254 37906 ft 492 kts 232°
2026-05-07 14:46 1.47589 105.93528 37048 ft 495 kts 232°
2026-05-07 14:47 1.45490 105.90791 36162 ft 497 kts 232°
2026-05-07 14:47 1.43377 105.88037 35283 ft 499 kts 232°
2026-05-07 14:47 1.41253 105.85268 34423 ft 501 kts 232°
2026-05-07 14:47 1.39155 105.82535 33572 ft 503 kts 232°
2026-05-07 14:48 1.37025 105.79758 32688 ft 505 kts 232°
2026-05-07 14:48 1.34882 105.76968 31780 ft 507 kts 232°
2026-05-07 14:48 1.32732 105.74159 30837 ft 509 kts 232°
2026-05-07 14:48 1.30579 105.71343 29999 ft 509 kts 232°
2026-05-07 14:49 1.28433 105.68536 29332 ft 504 kts 232°
2026-05-07 14:49 1.26309 105.65759 28657 ft 500 kts 232°
2026-05-07 14:49 1.24199 105.63001 27975 ft 496 kts 232°
2026-05-07 14:49 1.22105 105.60264 27308 ft 493 kts 232°
2026-05-07 14:50 1.20247 105.57455 26639 ft 490 kts 242°
2026-05-07 14:50 1.19104 105.54277 25973 ft 486 kts 258°
2026-05-07 14:50 1.18760 105.50936 25316 ft 482 kts 268°
2026-05-07 14:50 1.18692 105.47595 24659 ft 477 kts 269°
2026-05-07 14:51 1.18643 105.44294 24010 ft 473 kts 269°
2026-05-07 14:51 1.18582 105.41020 23364 ft 468 kts 269°
2026-05-07 14:51 1.18513 105.37785 22729 ft 464 kts 269°
2026-05-07 14:51 1.18438 105.34573 22418 ft 460 kts 269°
2026-05-07 14:52 1.18365 105.31377 22158 ft 460 kts 269°
2026-05-07 14:52 1.18293 105.28182 21909 ft 459 kts 269°
2026-05-07 14:52 1.18220 105.24994 21659 ft 457 kts 269°
2026-05-07 14:52 1.18149 105.21861 21408 ft 455 kts 269°
2026-05-07 14:53 1.18077 105.18703 21157 ft 453 kts 269°
2026-05-07 14:53 1.18005 105.15555 20907 ft 451 kts 269°
2026-05-07 14:53 1.17934 105.12417 20650 ft 450 kts 269°
2026-05-07 14:53 1.17861 105.09292 20406 ft 447 kts 269°
2026-05-07 14:54 1.17789 105.06196 20155 ft 445 kts 269°
2026-05-07 14:54 1.17718 105.03106 19907 ft 444 kts 269°
2026-05-07 14:54 1.17649 105.00068 19654 ft 442 kts 269°
2026-05-07 14:54 1.17579 104.96993 19406 ft 440 kts 269°
2026-05-07 14:55 1.17508 104.93940 19155 ft 438 kts 269°
2026-05-07 14:55 1.17439 104.90905 18905 ft 436 kts 269°
2026-05-07 14:55 1.17369 104.87881 18655 ft 434 kts 269°
2026-05-07 14:55 1.17300 104.84864 18404 ft 433 kts 269°
2026-05-07 14:56 1.17234 104.81902 18163 ft 431 kts 269°
2026-05-07 14:56 1.17164 104.78907 17906 ft 429 kts 269°
2026-05-07 14:56 1.17095 104.75935 17651 ft 427 kts 269°
2026-05-07 14:56 1.17026 104.72971 17416 ft 425 kts 269°
2026-05-07 14:57 1.16958 104.70014 17165 ft 424 kts 269°
2026-05-07 14:57 1.16891 104.67066 16903 ft 423 kts 269°
2026-05-07 14:57 1.16824 104.64148 16477 ft 417 kts 269°
2026-05-07 14:57 1.16756 104.61260 15859 ft 412 kts 269°
2026-05-07 14:58 1.16690 104.58439 15220 ft 409 kts 269°
2026-05-07 14:58 1.16624 104.55612 14579 ft 405 kts 269°
2026-05-07 14:58 1.16560 104.52812 13938 ft 401 kts 269°
2026-05-07 14:58 1.16495 104.50042 13291 ft 397 kts 269°
2026-05-07 14:59 1.16497 104.47303 12660 ft 392 kts 274°
2026-05-07 14:59 1.17094 104.44677 12096 ft 386 kts 293°
2026-05-07 14:59 1.18401 104.42354 11557 ft 380 kts 304°
2026-05-07 14:59 1.19880 104.40176 10962 ft 377 kts 305°
2026-05-07 15:00 1.21347 104.38051 10687 ft 363 kts 305°
2026-05-07 15:00 1.22743 104.36021 10551 ft 345 kts 304°
2026-05-07 15:00 1.24069 104.34083 10425 ft 329 kts 304°
2026-05-07 15:00 1.25330 104.32235 10291 ft 315 kts 304°
2026-05-07 15:01 1.26534 104.30467 10157 ft 301 kts 304°
2026-05-07 15:01 1.27691 104.28766 10027 ft 290 kts 304°
2026-05-07 15:01 1.28815 104.27113 9781 ft 291 kts 304°
2026-05-07 15:01 1.29974 104.25409 9512 ft 298 kts 304°
2026-05-07 15:02 1.31139 104.23696 9187 ft 298 kts 304°
2026-05-07 15:02 1.32424 104.22084 8789 ft 296 kts 317°
2026-05-07 15:02 1.34161 104.21070 8455 ft 293 kts 342°
2026-05-07 15:02 1.36135 104.20571 8122 ft 292 kts 348°
2026-05-07 15:03 1.38123 104.20163 7778 ft 291 kts 348°
2026-05-07 15:03 1.40108 104.19755 7466 ft 290 kts 348°
2026-05-07 15:03 1.42077 104.19344 7132 ft 288 kts 348°
2026-05-07 15:03 1.44000 104.18939 6942 ft 280 kts 348°
2026-05-07 15:04 1.45865 104.18541 6799 ft 267 kts 348°
2026-05-07 15:04 1.47643 104.18159 6668 ft 256 kts 348°
2026-05-07 15:04 1.49350 104.17796 6527 ft 244 kts 348°
2026-05-07 15:04 1.50976 104.17445 6391 ft 234 kts 348°
2026-05-07 15:05 1.52486 104.16961 6270 ft 223 kts 335°
2026-05-07 15:05 1.53765 104.16137 6053 ft 216 kts 316°
2026-05-07 15:05 1.54557 104.14903 5673 ft 216 kts 285°
2026-05-07 15:05 1.54690 104.13415 5293 ft 216 kts 268°
2026-05-07 15:06 1.54620 104.11919 4848 ft 214 kts 266°
2026-05-07 15:06 1.54522 104.10431 4319 ft 214 kts 265°
2026-05-07 15:06 1.54425 104.08948 3813 ft 213 kts 265°
2026-05-07 15:06 1.54316 104.07490 3458 ft 207 kts 263°
2026-05-07 15:07 1.53721 104.06219 3349 ft 199 kts 225°
2026-05-07 15:07 1.52740 104.05319 3201 ft 186 kts 212°
2026-05-07 15:07 1.51606 104.04808 3003 ft 177 kts 198°
2026-05-07 15:07 1.50464 104.04360 2774 ft 173 kts 202°
2026-05-07 15:08 1.49366 104.03879 2510 ft 171 kts 202°
2026-05-07 15:08 1.48277 104.03413 2301 ft 170 kts 202°
2026-05-07 15:08 1.47188 104.02953 2062 ft 170 kts 202°
2026-05-07 15:08 1.46106 104.02494 1843 ft 168 kts 202°
2026-05-07 15:09 1.45061 104.02051 1617 ft 158 kts 202°
2026-05-07 15:09 1.44087 104.01637 1413 ft 147 kts 202°
2026-05-07 15:09 1.43176 104.01250 1218 ft 138 kts 202°
2026-05-07 15:09 1.42300 104.00879 1044 ft 136 kts 202°
2026-05-07 15:10 1.41424 104.00508 851 ft 137 kts 202°
2026-05-07 15:10 1.40551 104.00135 680 ft 137 kts 202°
2026-05-07 15:10 1.39681 103.99756 534 ft 136 kts 203°
2026-05-07 15:10 1.38810 103.99397 371 ft 136 kts 201°
2026-05-07 15:11 1.37953 103.99039 168 ft 135 kts 203°
2026-05-07 15:11 1.37083 103.98666 38 ft 131 kts 202°
2026-05-07 15:11 1.36363 103.98365 37 ft 98 kts 203°
2026-05-07 15:11 1.35847 103.98147 37 ft 47 kts 201°
2026-05-07 15:12 1.35701 103.98116 37 ft 18 kts 184°
2026-05-07 15:12 1.35586 103.98117 37 ft 11 kts 174°
2026-05-07 15:12 1.35532 103.98159 37 ft 10 kts 106°
2026-05-07 15:12 1.35565 103.98219 37 ft 11 kts 32°
2026-05-07 15:13 1.35636 103.98252 37 ft 8 kts 23°
2026-05-07 15:13 1.35693 103.98276 37 ft 9 kts 23°
2026-05-07 15:13 1.35760 103.98305 37 ft 12 kts 22°
2026-05-07 15:13 1.35848 103.98341 37 ft 15 kts 22°
2026-05-07 15:14 1.35950 103.98384 37 ft 14 kts 23°
2026-05-07 15:14 1.36023 103.98415 37 ft 12 kts 23°
2026-05-07 15:14 1.36082 103.98440 37 ft 6 kts 24°
2026-05-07 15:14 1.36110 103.98473 37 ft 7 kts 73°
2026-05-07 15:15 1.36099 103.98523 37 ft 8 kts 109°
2026-05-07 15:15 1.36070 103.98571 37 ft 9 kts 139°
2026-05-07 15:15 1.36032 103.98594 37 ft 10 kts 143°
2026-05-07 15:15 1.36004 103.98633 37 ft 8 kts 115°
2026-05-07 15:16 1.35985 103.98677 37 ft 3 kts 112°
2026-05-07 15:16 1.35982 103.98685 37 ft 2 kts 112°
2026-05-07 15:16 1.35979 103.98692 37 ft 0 kts 112°